Regional Weather Roundup
Issued by NWS

Home | Current Version | Previous Version | Text Only | Print | Product List | Glossary On
Versions: 1 2 3 4 5 6 7 8 9 10 11 12 13 14 15 16 17 18 19 20 21 22 23 24 25 26 27 28 29 30 31 32 33 34 35 36 37 38 39 40 41 42 43 44 45 46 47 48 49 50
000
ASUS45 KCYS 300910
RWRWY

WYOMING REGIONAL WEATHER ROUNDUP
NATIONAL WEATHER SERVICE CHEYENNE WY
300 AM MDT WED JUL 30 2014

NOTE:  "FAIR" INDICATES FEW OR NO CLOUDS BELOW 12,000 FEET
WITH NO SIGNIFICANT WEATHER AND/OR OBSTRUCTIONS TO VISIBILITY.

WYZ001-301000-
YELLOWSTONE NATIONAL PARK

CITY           SKY/WX    TMP DP  RH WIND       PRES   REMARKS
LK YELLOWSTONE   N/A     43  42  97 CALM      30.47S
W YELLOWSTONE  NOT AVBL

$$
WYZ002>013-054>058-071-098>099-301000-
NORTHERN WYOMING

CITY           SKY/WX    TMP DP  RH WIND       PRES   REMARKS
JACKSON        CLOUDY    52  48  87 N16       30.35S
CODY           NOT AVBL
GREYBULL       CLEAR     58  53  84 SE5       30.26S
WORLAND        PTCLDY    56  55  97 SE5       30.27S
SHERIDAN       CLEAR     51  45  79 CALM      30.24S
BUFFALO        CLEAR     56  43  61 W6        30.30S
GILLETTE       PTCLDY    59  53  80 SW7       30.26S
HULETT         FAIR      59  54  82 MISG      30.27
NEWCASTLE      FAIR      54  52  94 N6        30.28

$$
WYZ014>020-022>026-101>103-301000-
CENTRAL WYOMING

CITY           SKY/WX    TMP DP  RH WIND       PRES   REMARKS
BIG PINEY      CLOUDY    55  53  93 N3        30.38F
PINEDALE       CLOUDY    52  50  93 CALM      30.39F
DUBOIS         CLOUDY    48  45  87 W5        30.41S
LANDER         CLOUDY    59  54  83 W7        30.34S
RIVERTON       CLOUDY    56  53  90 N5        30.34S
CASPER         CLOUDY    54  52  93 NW5       30.32S
DOUGLAS        MOCLDY    57  54  89 NE3       30.31F

$$
WYZ021-027>030-104>119-301000-
SOUTHERN WYOMING

CITY           SKY/WX    TMP DP  RH WIND       PRES   REMARKS
EVANSTON       LGT RAIN  55  52  89 E13       30.35R
KEMMERER       LGT RAIN  52  52 100 E17       30.38S
FORT BRIDGER   CLOUDY    55  55 100 E13       30.38S
ROCK SPRINGS   CLOUDY    56  52  86 NE9       30.34F
DIXON          HVY RAIN  58  56  95 NE3       30.31F
RAWLINS        LGT RAIN  53  52  96 NE12      30.34S
SARATOGA       DRIZZLE   54  54 100 CALM      30.34S
LARAMIE        LGT RAIN  54  52  93 NE3       30.35F
CHEYENNE       LGT RAIN  55  54  96 NE5       30.32S
TORRINGTON     CLOUDY    61  58  90 N5        30.24F
PINE BLUFFS    DRIZZLE   57  55  94 NE5       30.29S

$$


USA.gov is the U.S. government's official web portal to all federal, state and local government web resources and services.